SCP
0 0 0 0 0 0 0 0 0 0 0 0 0 1 1 1 1 1 2 3 4 4 3 2 2 2 1 1 1 1 2 2 1 1 1 1 1 1 1 1 1 1 1 1
0 0 0 0 0 0 0 0 0 0 0 0 0 1 1 1 1 1 2 3 4 4 3 2 2 1 1 1 1 1 2 2 1 1 1 1 1 1 1 1 1 1 1 1
0 0 0 0 0 0 0 0 0 0 0 0 1 1 1 1 1 1 2 3 3 3 3 2 1 1 1 1 1 1 2 2 1 1 1 1 1 1 1 1 1 1 1 1
0 0 0 0 0 0 0 0 0 0 0 0 0 1 1 1 1 1 2 2 3 3 3 2 1 1 1 1 1 1 2 2 1 1 1 1 1 1 1 1 0 0 0 0
0 0 0 0 0 0 0 0 0 0 0 0 0 0 1 1 1 1 2 2 2 2 2 2 1 1 1 1 1 1 1 1 1 1 1 0 0 0 0 0 0 0 0 0
0 0 0 0 0 0 0 0 0 0 0 0 0 0 0 1 1 1 2 2 2 2 2 1 1 1 1 1 1 1 1 1 1 1 0 0 0 0 0 0 0 0 0 0
0 0 0 0 0 0 0 0 0 0 0 0 0 0 0 0 0 1 1 2 2 1 1 1 1 1 1 1 1 1 1 1 1 0 0 0 0 0 0 0 0 0 0 0
0 0 0 0 0 0 0 0 0 0 0 0 0 0 0 0 0 1 1 1 2 1 1 1 1 1 1 1 1 1 1 1 1 0 0 0 0 0 0 0 0 0 0 0
0 0 0 0 0 0 0 0 0 0 0 0 0 0 0 0 0 1 1 1 2 2 2 1 1 1 1 0 0 0 1 1 1 1 1 0 0 0 0 0 0 0 0 0
0 0 0 0 0 0 0 0 0 0 0 0 0 0 0 0 0 1 1 1 2 1 2 1 1 0 0 0 0 0 1 1 1 1 1 1 0 0 0 0 0 0 0 0
0 0 0 0 0 1 0 0 0 0 0 0 0 0 0 0 0 1 1 1 1 1 1 1 1 0 0 0 0 0 1 1 1 1 1 1 1 1 1 0 0 0 0 0
1 0 0 0 1 1 1 0 0 0 0 0 0 0 0 0 0 1 1 1 1 1 1 1 1 1 0 0 0 1 1 1 1 1 1 1 1 1 1 0 0 0 0 0
1 1 1 1 1 1 1 0 0 0 0 0 0 0 0 0 0 1 1 1 1 1 1 1 1 1 1 1 1 1 1 1 1 1 1 1 1 1 1 1 0 0 0 0
1 1 1 1 1 1 1 1 0 0 0 0 0 0 0 1 1 1 1 1 1 1 1 1 1 1 1 1 1 1 1 1 1 1 1 2 1 1 1 1 1 1 0 1
1 1 1 1 1 1 1 0 0 0 0 0 0 0 1 1 1 1 1 1 1 1 1 1 1 1 1 1 1 1 1 1 1 2 2 2 2 2 2 2 1 1 1 1
1 1 1 1 1 1 0 0 0 0 0 0 0 1 1 1 1 1 1 1 1 1 1 1 2 1 1 1 1 1 1 1 2 2 2 2 2 2 2 2 2 2 2 2
2 2 1 1 1 1 0 0 0 0 0 0 1 1 1 1 1 1 1 1 1 1 1 1 2 2 2 2 2 2 2 2 2 2 2 2 2 2 2 2 2 2 2 3
2 2 1 1 1 1 1 1 0 0 0 1 1 1 1 1 1 1 1 1 1 1 1 1 2 2 2 2 2 2 2 3 3 3 3 3 3 4 4 3 3 2 2 3
2 2 1 1 1 1 1 1 1 1 1 1 1 1 1 1 1 1 1 1 1 1 1 1 2 2 2 2 2 2 3 3 3 3 3 4 5 5 5 4 3 3 3 3
1 1 1 1 1 1 1 1 1 1 1 1 1 1 1 1 1 1 1 1 1 1 2 2 2 2 3 3 3 3 4 4 3 4 5 5 5 5 4 4 4 3 3 3
1 1 1 1 1 1 1 1 1 1 1 1 1 1 1 1 1 1 2 2 2 2 3 3 3 3 3 3 4 5 5 5 5 5 5 5 3 3 3 4 4 3 3 2
1 1 1 1 1 1 1 1 1 1 1 1 1 1 1 1 1 1 2 2 2 3 3 4 4 4 4 5 6 7 7 6 6 5 5 4 2 2 2 3 3 3 2 2
1 1 1 1 1 1 1 1 1 1 1 1 1 1 1 1 1 1 2 2 2 2 3 4 4 5 5 5 6 7 6 5 5 4 4 3 2 2 2 2 2 2 1 1
1 1 1 1 1 1 1 1 1 1 1 1 1 1 1 1 1 2 2 2 2 2 2 3 4 4 4 4 4 4 4 4 3 4 4 3 2 1 2 2 1 1 1 1
1 1 1 1 1 1 1 1 1 1 1 1 1 1 1 1 2 2 3 3 2 2 2 3 3 3 4 4 4 3 3 3 3 3 3 2 2 1 1 1 1 1 1 1
0 1 1 1 1 1 1 1 1 1 1 1 1 2 2 2 2 3 3 3 3 2 2 2 3 3 4 4 4 3 3 3 3 3 3 2 1 2 1 1 1 0 0 1
Wind_Speed
9 10 10 7 7 8 7 8 7 2 1 5 5 4 5 6 6 6 7 8 8 8 8 8 9 9 9 8 9 9 8 8 7 6 6 6 6 5 5 4 5 4 4 4
9 13 9 5 6 8 9 9 6 2 3 5 4 5 5 7 7 7 8 8 9 10 10 10 10 9 9 9 8 9 8 8 8 6 5 4 5 4 4 4 5 5 4 4
14 5 4 7 8 9 10 9 6 3 3 6 5 7 8 8 8 8 8 8 9 11 12 11 11 10 10 10 10 8 8 8 7 7 6 6 5 5 5 5 5 5 4 4
12 8 7 9 9 9 8 3 5 5 7 4 5 6 6 9 10 10 10 10 10 12 12 12 12 11 10 11 10 9 9 8 7 8 7 8 6 5 5 5 5 5 4 4
10 8 9 10 7 7 3 2 5 6 8 7 6 8 2 8 10 12 13 12 12 13 13 13 13 12 11 11 10 10 9 8 8 7 7 7 6 5 5 5 6 5 4 3
12 6 7 6 3 4 4 5 5 6 8 8 4 7 2 6 8 11 14 14 13 13 13 13 12 12 11 11 10 10 10 9 8 7 7 6 6 6 6 6 6 5 4 4
14 13 9 7 7 7 9 8 6 6 6 3 2 6 3 2 5 8 13 16 15 14 14 14 14 14 13 13 12 11 11 10 9 9 8 7 7 7 7 6 6 5 4 4
12 12 12 10 11 7 10 10 7 6 5 2 4 5 1 4 5 7 11 14 16 16 15 15 15 15 14 14 13 12 12 11 10 9 8 7 8 6 6 5 4 5 3 3
9 8 6 7 7 8 8 9 6 8 7 7 3 2 4 6 8 10 12 15 16 17 16 16 16 15 15 15 14 14 13 12 11 10 9 8 7 5 5 6 5 4 3 4
10 8 7 6 7 6 8 6 5 7 6 7 4 3 2 9 12 13 14 16 16 17 17 16 16 15 15 14 14 14 13 12 11 11 9 8 8 7 7 6 5 4 4 4
11 10 8 9 11 11 9 9 9 7 7 8 6 1 3 5 10 14 16 16 17 17 17 16 16 16 15 15 14 14 13 13 12 11 10 9 9 9 8 7 7 6 6 5
9 9 10 10 4 5 10 10 10 9 7 7 8 1 6 4 8 12 14 15 16 17 17 16 16 16 15 15 15 14 14 14 13 12 11 10 9 9 9 8 8 7 7 6
5 7 10 9 8 8 10 11 11 10 8 8 9 2 8 6 7 10 13 15 15 16 16 16 16 16 16 16 15 15 15 14 13 12 12 11 11 10 9 9 8 8 7 7
5 8 12 12 6 7 10 11 12 12 10 10 10 7 5 7 8 10 12 15 16 16 16 16 16 16 15 15 15 15 15 14 13 13 12 12 11 11 10 9 9 9 8 8
5 10 12 13 10 9 10 11 13 14 14 13 10 8 5 5 8 10 12 15 16 17 18 18 17 16 16 16 15 15 15 14 13 13 13 12 11 11 10 10 10 9 9 9
4 7 10 12 11 11 13 13 13 14 14 14 13 10 5 3 6 9 12 15 16 18 19 19 18 17 17 17 16 15 15 14 14 14 13 12 12 11 11 11 10 10 10 9
5 6 8 10 9 9 13 14 14 14 13 12 13 9 4 4 6 8 11 13 16 17 18 19 18 18 17 17 16 16 15 14 14 14 13 12 12 12 12 11 11 11 10 10
7 8 7 8 7 12 6 3 8 11 11 10 10 7 4 4 4 5 7 10 12 14 16 16 16 17 16 16 16 15 15 15 14 14 13 13 13 12 12 11 11 10 9 9
8 7 6 7 10 10 5 3 5 7 7 6 7 6 3 2 4 6 4 6 9 11 12 12 14 15 14 15 15 15 15 15 14 14 13 13 12 12 11 11 11 10 9 9
7 8 8 8 9 9 2 3 0 4 5 2 2 2 2 4 6 3 2 3 5 7 9 10 11 12 12 13 14 14 14 14 14 13 12 11 11 11 11 10 10 9 8 9
7 7 11 11 10 6 3 2 4 6 2 4 2 1 1 1 3 3 1 2 3 5 7 9 10 9 10 11 12 12 12 12 11 11 10 10 10 10 9 9 8 8 8 8
5 6 8 7 8 3 4 1 1 4 4 3 3 2 2 2 2 3 4 4 5 6 8 9 9 9 8 10 11 10 10 9 9 9 9 9 9 8 8 8 7 7 7 8
4 4 3 3 1 4 4 4 4 3 3 2 2 2 2 3 4 5 5 5 5 6 7 8 9 9 8 8 9 9 8 8 9 9 8 8 8 7 6 7 7 7 7 7
2 1 4 4 1 2 3 3 2 2 2 2 2 2 3 4 5 6 6 5 6 7 7 8 9 10 9 8 7 7 7 8 9 8 7 7 6 6 6 5 5 6 6 6
3 2 4 4 2 1 2 4 4 3 3 3 4 4 4 5 6 6 7 7 6 7 7 7 8 8 9 9 7 7 7 7 8 8 7 6 5 4 4 4 3 5 4 4
3 4 5 4 3 3 3 2 3 4 4 5 6 7 7 7 7 7 8 7 7 8 8 8 9 9 9 9 8 7 6 6 6 6 5 4 4 3 3 4 4 6 7 4
Wind_Direction
201 230 232 236 250 283 288 283 287 293 176 235 243 231 179 170 182 176 169 167 166 156 151 152 154 156 155 155 157 158 156 155 157 155 158 158 155 153 146 138 129 139 136 132
212 230 240 261 257 254 256 266 271 214 172 241 245 237 188 182 191 184 176 175 172 161 158 156 157 163 161 160 160 157 160 162 165 155 151 156 145 152 137 128 127 140 138 147
231 232 212 237 241 245 252 262 274 267 204 218 243 225 191 184 191 186 186 183 175 170 165 162 163 167 163 165 166 162 160 160 161 154 152 146 146 157 150 148 147 144 147 147
238 241 237 244 247 254 259 256 264 241 240 235 239 275 184 183 188 190 189 185 176 172 168 166 166 165 166 165 161 157 156 156 155 165 165 168 170 164 153 160 141 144 148 148
221 221 232 248 255 253 275 238 239 243 256 267 224 267 178 176 199 193 188 185 179 175 173 170 168 165 164 163 161 159 159 159 158 164 162 174 170 156 151 153 139 155 143 154
246 233 249 250 236 227 170 184 203 228 246 254 254 266 258 185 210 191 182 181 178 173 171 169 165 162 164 165 164 161 161 161 162 167 167 178 161 156 156 164 158 173 160 159
230 228 217 219 210 189 209 228 231 223 226 253 136 257 289 155 185 187 180 178 177 173 171 170 169 170 171 172 169 165 164 166 169 171 171 171 166 167 171 177 170 184 171 162
225 222 204 210 227 223 219 243 267 287 293 298 178 253 46 128 163 176 176 175 174 175 175 175 176 176 176 175 174 172 170 170 172 172 170 169 172 182 171 176 175 176 176 144
234 227 181 204 224 236 217 236 272 274 276 279 242 213 180 166 177 176 174 174 176 178 177 178 179 179 179 178 178 177 174 174 176 174 170 172 178 179 157 160 184 169 157 152
248 247 201 182 197 218 258 239 222 254 276 275 262 248 204 176 185 181 180 180 179 179 179 180 181 182 182 180 179 180 179 178 177 177 180 174 175 172 168 178 169 160 162 159
235 241 215 195 219 214 197 216 241 255 272 282 287 322 76 179 186 184 184 182 180 181 181 181 182 182 182 181 180 181 182 181 182 183 182 177 178 175 177 179 177 177 179 180
224 241 242 224 217 281 237 235 229 245 244 254 280 311 106 164 180 184 182 181 180 182 180 180 179 179 182 183 183 183 186 186 185 183 182 184 183 181 184 183 184 184 186 194
202 233 235 217 200 206 227 229 235 245 257 253 262 226 124 154 175 182 182 180 180 182 181 180 179 181 184 186 187 187 189 189 187 184 186 186 187 187 192 188 186 189 193 199
243 239 249 253 252 211 215 220 222 227 241 247 250 262 179 181 185 186 185 182 181 183 184 184 183 186 187 188 188 189 190 189 186 187 190 188 191 191 193 192 190 194 198 203
240 244 249 262 268 259 246 236 223 228 247 261 263 260 253 210 203 194 191 188 186 187 188 189 188 188 188 189 189 192 191 188 187 189 192 192 192 191 194 193 195 198 203 208
234 258 256 252 250 250 251 246 236 235 246 254 263 265 267 237 211 198 193 194 193 193 193 193 192 190 190 191 191 191 191 188 187 191 193 190 191 191 194 196 199 202 207 213
223 236 249 249 249 248 244 238 236 235 238 247 254 257 246 221 213 209 200 200 201 199 197 195 194 193 193 192 191 191 189 185 187 192 193 189 192 194 196 200 201 205 209 212
240 237 245 250 238 243 247 254 248 246 248 248 256 265 254 254 233 219 213 208 206 203 199 196 195 194 193 191 189 190 185 185 188 191 193 191 193 196 197 202 205 208 212 216
230 232 239 242 237 245 226 221 237 240 250 254 251 256 268 254 207 190 200 212 211 205 201 196 195 192 189 187 185 185 185 186 189 192 194 192 193 195 197 202 207 209 213 219
207 229 242 237 245 247 216 109 215 249 234 25 283 257 246 228 228 139 106 195 196 191 185 182 180 180 178 179 178 181 184 186 190 191 192 190 192 196 200 205 208 209 214 223
192 212 233 240 244 251 61 115 207 233 64 39 17 351 251 240 350 30 68 138 152 155 156 154 155 159 164 167 172 181 182 186 187 184 183 183 189 197 201 203 206 210 216 225
229 221 225 233 238 228 56 220 293 22 20 17 23 41 67 78 63 68 83 104 121 132 139 141 140 141 145 155 163 170 176 175 172 172 175 178 184 195 192 196 203 210 219 224
260 303 302 285 333 49 24 11 4 338 333 359 19 54 95 98 88 81 82 92 105 114 124 133 135 130 131 144 154 160 161 161 161 162 166 169 175 186 191 193 201 210 217 235
209 283 269 266 231 21 8 14 12 17 16 34 77 96 111 109 100 92 90 91 98 104 114 122 125 124 125 129 135 137 139 146 150 152 156 163 173 182 186 203 211 223 227 237
316 257 265 269 299 321 57 31 32 53 68 88 96 94 96 104 101 97 95 90 93 101 107 113 117 119 120 121 122 124 128 138 142 145 150 160 172 184 190 201 225 241 247 262
282 281 289 307 341 326 348 27 71 86 84 88 95 93 86 86 90 90 89 89 92 96 102 105 107 109 111 113 111 112 119 130 138 143 151 161 172 176 202 212 216 214 238 235